sat.trackr.live / text

‹ back to catalog

ONEWEB-0348

NORAD 49213 · 2021-083AD

PAYLOAD ACTIVE UNKNOWN

§ Identity

Operator
Country
UK
Launch date
2021-09-14
Launch site
TYMSC
Launch vehicle
Mass (kg)
RCS (m²)

Purposes: comms

External: N2YO · Heavens-Above · Gunter

§ Orbital elements

Epoch: 2026-09-19T17:36:34.948512Z

Period
109.03 min
Inclination
87.9141°
Eccentricity
0.0001985
Mean motion
13.20771822 rev/d
Perigee alt
1,180.3 km
Apogee alt
1,183.3 km
Semi-major
7,559.9 km
B*
-5.2441e-5
RAAN
255.5800°
Arg perigee
102.3300°
Mean anomaly
257.8056°
Rev number
24,929

§ Raw data

ONEWEB-03481 49213U 21083AD  26262.73373783 -.00000008  00000+0 -52441-4 0  99912 49213  87.9141 255.5800 0001985 102.3300 257.8056 13.20771822249290

JSON: /api/v1/satellites/49213 · /tle

For live sub-satellite position, see the globe view (requires WebGL).

§ Visibility from observer

Set your observer location to see the next 7 days of passes ≥ 10°. The values pass through the URL so the page stays shareable.

No JS? Fill the form by hand. The geolocation button needs JavaScript.